Date,TemperatureHighF,TemperatureAvgF,TemperatureLowF,DewpointHighF,DewpointAvgF,DewpointLowF,HumidityHigh,HumidityAvg,HumidityLow,PressureMaxIn,PressureMinIn,WindSpeedMaxMPH,WindSpeedAvgMPH,GustSpeedMaxMPH,PrecipitationSumIn
2013-1-1,48.2,44.6,38.5,34.8,22.0,2.0,66,43,20,29.87,29.75,6,1,6,0.47
2013-1-2,47.7,42.0,37.2,33.9,22.5,14.1,64,47,27,29.87,29.69,7,1,7,0.04
2013-1-3,44.6,37.0,26.1,30.5,19.8,1.5,67,51,30,29.99,29.84,6,1,6,0.04
2013-1-4,62.1,34.3,22.8,19.3,1.4,-7.2,37,25,17,30.02,29.93,8,2,8,0.04
2013-1-5,55.4,37.1,24.3,17.7,2.7,-6.6,42,23,17,30.05,29.93,6,2,6,0.00
2013-1-6,68.4,44.8,31.8,21.9,13.4,-0.4,46,29,17,29.93,29.81,8,2,8,0.04
2013-1-7,66.9,39.5,26.1,21.3,5.4,-3.4,41,25,17,30.11,29.90,6,2,8,0.04
2013-1-8,64.4,42.5,28.8,27.4,13.3,2.7,45,31,18,30.14,30.05,6,1,6,0.04
2013-1-9,55.8,52.4,47.5,41.2,34.3,27.4,67,51,36,30.22,30.11,5,0,5,0.04
2013-1-10,69.6,55.7,50.2,39.9,26.2,17.6,65,35,17,30.25,30.11,8,1,8,0.16
2013-1-11,59.2,54.9,51.3,50.2,45.6,37.9,74,71,60,30.11,29.96,8,1,8,1.30
2013-1-12,76.5,60.3,55.8,50.4,40.2,24.1,74,51,18,29.99,29.93,7,2,7,0.04
2013-1-13,61.5,57.4,55.2,50.2,39.9,30.2,74,53,32,29.96,29.90,13,3,13,0.43
2013-1-14,60.8,59.0,57.9,53.5,51.5,49.2,77,76,70,29.93,29.87,12,2,12,1.81
2013-1-15,59.0,56.0,52.3,50.1,47.4,43.6,76,73,70,29.93,29.81,9,1,9,2.01
2013-1-16,61.5,53.6,49.5,51.5,41.6,29.1,78,65,42,29.81,29.75,8,1,8,1.22
2013-1-17,50.7,44.4,28.4,39.8,31.8,7.3,68,61,39,29.90,29.52,8,0,9,2.09
2013-1-18,62.1,36.7,24.3,19.3,3.1,-6.1,42,25,16,30.16,29.90,8,1,8,1.22
2013-1-19,62.8,39.8,26.4,19.6,4.9,-4.5,35,24,16,30.14,29.90,10,1,10,1.22
2013-1-20,69.3,44.7,33.6,22.6,6.3,-1.0,23,20,17,29.90,29.84,10,2,10,0.00
2013-1-21,64.8,41.4,27.5,20.3,4.0,-5.4,23,21,17,29.84,29.72,14,3,14,1.22
2013-1-22,47.5,28.7,18.7,7.4,-4.3,-11.4,25,23,19,29.90,29.72,16,3,19,1.22
2013-1-23,60.4,35.3,21.0,17.7,0.1,-9.4,25,22,17,29.96,29.81,15,2,15,1.22
2013-1-24,58.6,37.1,18.5,14.0,1.9,-11.4,29,22,17,30.08,29.72,20,3,20,1.22
2013-1-25,42.8,25.8,16.3,32.3,3.1,-12.5,74,39,25,30.08,29.78,11,1,11,1.22
2013-1-26,62.6,38.2,30.6,19.3,7.5,-0.6,51,29,17,30.02,29.81,10,2,10,1.22
2013-1-27,57.7,36.5,23.7,12.9,6.4,-0.4,43,29,17,30.16,30.02,8,1,8,1.22
2013-1-28,64.0,46.5,33.3,30.7,17.1,5.7,54,32,18,30.14,30.02,10,2,10,0.00
2013-1-29,69.3,54.6,47.1,47.9,26.3,8.9,71,37,17,30.02,29.84,10,2,10,1.22
2013-1-30,61.2,57.1,44.1,54.6,50.0,27.6,81,77,52,29.84,29.37,20,4,20,5.83
2013-1-31,50.9,34.9,23.4,10.1,-0.1,-5.9,32,22,19,29.78,29.60,15,3,15,0.00